Location: Ferques
(50.8300°N, 1.7599°E)
Time: 14:26:20
(UTC+00:00)

ARIANE 5 R/B - Pass Details

Date: 19 May 2025
Orbit: 614 x 648 km, 98.0° (Epoch: 16 June)

Event Time Altitude Azimuth Distance (km) Brightness Sun altitude
Exits shadow 23:01:18 38° 193° (SSW) 956 3.0 -18.4°
Maximum altitude 23:02:48 63° 258° (WSW) 698 2.7 -18.4°
Drops below altitude 10° 23:07:07 10° 340° (NNW) 2,005 6.4 -18.6°
Sets 23:09:22 0° 344° (NNW) 2,922 7.7 -18.6°
